Starlink 5801

operational
NORAD ID: 56005 Int'l Des: 2023-042 Owner: SPXS Country: US Constellation: starlink
LEOCIRCULAR

Über Starlink 5801

Beschreibung wird geladen...

Live-Position

3D-Globus wird geladen...

Nächste Überflüge

Höhenverlauf

Altitude vs Time

uPlot chart will show altitude changes over time

Zweizeiliger Elementsatz

1 56005U 23042V 25348.86992669 -.00002584 00000-0 -17629-3 0 9993
2 56005 43.0023 156.7961 0001310 273.0552 87.0140 15.02534889150151
Epoch: 14. Dez. 2025 • Age: 28 hours

Aktueller Status

Höhe 568.0 km
Geschwindigkeit 7.58 km/s
Subsatellitenpunkt -34.41°S, 1.77°W
Startdatum 24. März 2023
Alter 2.7 years
Typ internet

Technische Details

Klassifizierung Payload
Masse 305.00 kg
Trockenmasse 290.00 kg
Gesamtmasse 305.00 kg
Länge 0.20 m
Durchmesser 2.80 m
Spannweite 9.00 m
Form Box + pan
Hersteller SPXS
Bus-Typ Starlink
Phasenstatus In Orbit
Besitzer/Staat SPXS/US

Große Konstellationen

Loading constellations...